Change the Weather History Date:

Monday, December 10, 2012

  Actual Average Record
Temperature  
Mean Temperature 42 °F -  
Max Temperature 57 °F 56 °F 77 °F (1952)
Min Temperature 28 °F 34 °F 18 °F (1977)
Degree Days  
Heating Degree Days 22    
Moisture  
Dew Point 31 °F    
Average Humidity 65    
Maximum Humidity 88    
Minimum Humidity 40    
Precipitation  
Precipitation 0.02 in - - ()
Sea Level Pressure  
Sea Level Pressure 29.99 in    
Wind  
Wind Speed 8 mph (NNW)    
Max Wind Speed 16 mph    
Max Gust Speed 24 mph    
Visibility 9 miles    
Events Rain    
Averages and records for this station are not official NWS values.
T = Trace of Precipitation, MM = Missing Value Source: NWS Daily Summary

Daily Weather History Graph

Daily Weather History Graph

Search for Another Location

Airport or City:

Trip Planner

Search our weather history database for the weather conditions in past years. The results will help you decide how hot, cold, wet, or windy it might be!

Date:

Astronomy

Dec. 10, 2012 Rise Set
Actual Time 7:05 AM CST 5:03 PM CST
Civil Twilight 6:37 AM CST 5:30 PM CST
Nautical Twilight 6:06 AM CST 6:01 PM CST
Astronomical Twilight 5:36 AM CST 6:32 PM CST
Moon 3:54 AM CST (12/10) 2:48 PM CST (12/10)
Length of Visible Light 10h 53m
Length of Day
9h 58m
Waning Crescent, 10% of the Moon is Illuminated
Dec 10
Waning Crescent
Dec 13
New
Dec 19
First Quarter
Dec 28
Full
Jan 4
Last Quarter

Hourly Weather History & Observations

Time (CST) Temp. Windchill Dew Point Humidity Pressure Visibility Wind Dir Wind Speed Gust Speed Precip Events Conditions
12:15 AM 57.2 °F - 50.0 °F 77% 29.85 in 7.0 mi NNW 9.2 mph - N/A   Overcast
12:35 AM 55.4 °F - 50.0 °F 82% 29.85 in 6.0 mi NNW 8.1 mph - N/A Rain Light Rain
12:55 AM 55.4 °F - 50.0 °F 82% 29.86 in 7.0 mi NW 8.1 mph - N/A   Overcast
1:15 AM 55.4 °F - 48.2 °F 77% 29.84 in 7.0 mi North 6.9 mph - N/A Rain Light Rain
1:35 AM 53.6 °F - 48.2 °F 82% 29.89 in 7.0 mi WNW 11.5 mph - N/A   Overcast
1:55 AM 51.8 °F - 48.2 °F 88% 29.86 in 5.0 mi North 4.6 mph - 0.02 in Rain Light Rain
2:15 AM 51.8 °F - 48.2 °F 88% 29.87 in 5.0 mi NNW 5.8 mph - N/A   Overcast
2:55 AM 51.8 °F - 48.2 °F 88% 29.87 in 5.0 mi NNW 6.9 mph - N/A   Overcast
3:15 AM 50.0 °F - 46.4 °F 87% 29.86 in 7.0 mi North 8.1 mph - N/A   Overcast
3:35 AM 50.0 °F - 44.6 °F 82% 29.86 in 7.0 mi NNE 6.9 mph - N/A Rain Light Rain
3:55 AM 50.0 °F - 44.6 °F 82% 29.86 in 8.0 mi North 9.2 mph - N/A Rain Light Rain
4:15 AM 50.0 °F - 44.6 °F 82% 29.87 in 10.0 mi NNW 10.4 mph - N/A   Overcast
4:35 AM 50.0 °F - 44.6 °F 82% 29.86 in 10.0 mi North 8.1 mph - N/A   Overcast
4:55 AM 50.0 °F - 44.6 °F 82% 29.88 in 10.0 mi NNW 6.9 mph - N/A   Overcast
5:15 AM 50.0 °F - 44.6 °F 82% 29.88 in 10.0 mi NW 6.9 mph - N/A   Overcast
5:35 AM 48.2 °F - 44.6 °F 87% 29.89 in 9.0 mi NW 9.2 mph - N/A   Overcast
5:55 AM 46.4 °F 39.8 °F 39.2 °F 76% 29.92 in 10.0 mi NW 16.1 mph 24.2 mph N/A   Overcast
6:15 AM 44.6 °F 38.1 °F 35.6 °F 71% 29.94 in 10.0 mi NW 13.8 mph 20.7 mph N/A   Overcast
6:35 AM 42.8 °F 35.8 °F 32.0 °F 66% 29.95 in 10.0 mi NW 13.8 mph 19.6 mph N/A   Overcast
6:55 AM 41.0 °F 33.9 °F 32.0 °F 70% 29.98 in 10.0 mi NW 12.7 mph 19.6 mph N/A   Overcast
7:15 AM 41.0 °F 33.9 °F 28.4 °F 61% 29.99 in 10.0 mi NW 12.7 mph 18.4 mph N/A   Overcast
7:35 AM 39.2 °F 30.8 °F 26.6 °F 61% 30.00 in 10.0 mi NNW 15.0 mph 23.0 mph N/A   Overcast
8:15 AM 39.2 °F 31.6 °F 24.8 °F 56% 30.00 in 10.0 mi NNW 12.7 mph 18.4 mph N/A   Overcast
8:35 AM 39.2 °F 32.0 °F 24.8 °F 56% 30.00 in 10.0 mi NNW 11.5 mph 16.1 mph N/A   Overcast
8:55 AM 39.2 °F 31.6 °F 24.8 °F 56% 30.01 in 10.0 mi NNW 12.7 mph 17.3 mph N/A   Scattered Clouds
9:15 AM 41.0 °F 33.9 °F 23.0 °F 49% 30.02 in 10.0 mi NW 12.7 mph 20.7 mph N/A   Clear
9:35 AM 41.0 °F 34.7 °F 23.0 °F 49% 30.03 in 10.0 mi NW 10.4 mph 18.4 mph N/A   Clear
9:55 AM 42.8 °F 38.0 °F 24.8 °F 49% 30.04 in 10.0 mi NW 8.1 mph - N/A   Clear
10:15 AM 44.6 °F 40.7 °F 23.0 °F 43% 30.03 in 10.0 mi NNW 6.9 mph - N/A   Clear
10:35 AM 44.6 °F 39.2 °F 23.0 °F 43% 30.03 in 10.0 mi NW 10.4 mph 17.3 mph N/A   Clear
10:55 AM 46.4 °F 41.5 °F 23.0 °F 40% 30.03 in 10.0 mi NW 10.4 mph - N/A   Partly Cloudy
11:15 AM 46.4 °F 41.9 °F 24.8 °F 43% 30.03 in 10.0 mi NW 9.2 mph - N/A   Partly Cloudy
11:55 AM 46.4 °F 42.9 °F 24.8 °F 43% 30.02 in 10.0 mi NNW 6.9 mph 18.4 mph N/A   Clear
12:15 PM 46.4 °F 42.4 °F 24.8 °F 43% 30.01 in 10.0 mi NW 8.1 mph - N/A   Clear
12:35 PM 46.4 °F 40.7 °F 24.8 °F 43% 30.01 in 10.0 mi WNW 12.7 mph 18.4 mph N/A   Clear
12:55 PM 48.2 °F - 24.8 °F 40% 30.00 in 10.0 mi NNW 11.5 mph 16.1 mph N/A   Clear
1:15 PM 46.4 °F 42.4 °F 26.6 °F 46% 30.00 in 10.0 mi NW 8.1 mph 16.1 mph N/A   Clear
1:35 PM 46.4 °F 42.9 °F 24.8 °F 43% 29.99 in 10.0 mi NNW 6.9 mph - N/A   Clear
1:55 PM 48.2 °F - 26.6 °F 43% 29.99 in 10.0 mi NW 9.2 mph - N/A   Clear
2:15 PM 46.4 °F 41.5 °F 24.8 °F 43% 30.00 in 10.0 mi NNW 10.4 mph 16.1 mph N/A   Clear
2:35 PM 46.4 °F 41.9 °F 24.8 °F 43% 30.00 in 10.0 mi NNW 9.2 mph - N/A   Clear
3:15 PM 46.4 °F 43.5 °F 24.8 °F 43% 30.00 in 10.0 mi NW 5.8 mph - N/A   Clear
3:55 PM 46.4 °F 42.4 °F 24.8 °F 43% 30.01 in 10.0 mi NNW 8.1 mph - N/A   Clear
4:15 PM 44.6 °F 40.2 °F 24.8 °F 46% 30.01 in 10.0 mi NW 8.1 mph - N/A   Clear
4:35 PM 44.6 °F 40.7 °F 23.0 °F 43% 30.01 in 10.0 mi NNW 6.9 mph - N/A   Clear
4:55 PM 41.0 °F 37.1 °F 24.8 °F 53% 30.03 in 10.0 mi North 5.8 mph - N/A   Clear
5:15 PM 39.2 °F 35.9 °F 24.8 °F 56% 30.03 in 10.0 mi NNW 4.6 mph - N/A   Clear
5:35 PM 39.2 °F - 24.8 °F 56% 30.04 in 10.0 mi Calm Calm - N/A   Clear
5:55 PM 39.2 °F - 24.8 °F 56% 30.04 in 10.0 mi Calm Calm - N/A   Clear
6:15 PM 37.4 °F - 24.8 °F 60% 30.04 in 10.0 mi Calm Calm - N/A   Clear
6:35 PM 35.6 °F - 26.6 °F 70% 30.04 in 10.0 mi Calm Calm - N/A   Clear
6:55 PM 33.8 °F - 26.6 °F 75% 30.05 in 10.0 mi Calm Calm - N/A   Clear
7:15 PM 32.0 °F - 26.6 °F 80% 30.05 in 10.0 mi Calm Calm - N/A   Clear
7:35 PM 32.0 °F - 26.6 °F 80% 30.06 in 8.0 mi Calm Calm - N/A   Clear
7:55 PM 32.0 °F - 26.6 °F 80% 30.06 in 9.0 mi Calm Calm - N/A   Clear
8:15 PM 32.0 °F - 26.6 °F 80% 30.07 in 8.0 mi Calm Calm - N/A   Clear
8:35 PM 32.0 °F 27.5 °F 24.8 °F 75% 30.08 in 10.0 mi NNW 4.6 mph - N/A   Clear
8:55 PM 32.0 °F 28.7 °F 24.8 °F 75% 30.08 in 10.0 mi NNW 3.5 mph - N/A   Clear
9:15 PM 32.0 °F - 24.8 °F 75% 30.09 in 10.0 mi Calm Calm - N/A   Clear
9:35 PM 32.0 °F - 24.8 °F 75% 30.09 in 10.0 mi Calm Calm - N/A   Clear
9:55 PM 32.0 °F - 24.8 °F 75% 30.10 in 10.0 mi Calm Calm - N/A   Clear
10:15 PM 32.0 °F 28.7 °F 24.8 °F 75% 30.11 in 10.0 mi NNW 3.5 mph - N/A   Clear
10:35 PM 32.0 °F - 23.0 °F 69% 30.12 in 10.0 mi Calm Calm - N/A   Clear
10:55 PM 30.2 °F - 24.8 °F 80% 30.13 in 10.0 mi Calm Calm - N/A   Clear
11:15 PM 28.4 °F - 24.8 °F 86% 30.13 in 10.0 mi Calm Calm - N/A   Clear
11:35 PM 28.4 °F - 23.0 °F 80% 30.12 in 10.0 mi Calm Calm - N/A   Clear
11:55 PM 28.4 °F 23.3 °F 24.8 °F 86% 30.12 in 10.0 mi North 4.6 mph - N/A   Clear